This demonstration page uses our WeatherBlox Daily Observations layout. Learn more.

Left ArrowRight Arrow

Hourly Observations for March 19, 2015

Temp ( °F °C ) Dew Point ( °F °C ) Humidity (%) Winds ( mph kmh ) Pressure ( in mb ) Visibility ( mi km ) Precip ( " mm )
12:16 am 00:16 Clear 37 3 18 -8 45 45 ENE 7 11 30.27 1025 10 16 N/A
12:35 am 00:35 Clear 37 3 18 -8 45 45 ENE 6 9 30.27 1025 10 16 N/A
12:56 am 00:56 Clear 37 3 23 -5 56 56 E 3 6 30.27 1025 10 16 N/A
1:16 am 01:16 Clear 37 3 19 -7 48 48 E 5 7 30.27 1025 10 16 N/A
1:35 am 01:35 Clear 37 3 19 -7 48 48 N N/A 30.27 1025 10 16 N/A
1:56 am 01:56 Clear 37 3 21 -6 52 52 NE 8 13 30.27 1025 10 16 N/A
2:16 am 02:16 Clear 37 3 19 -7 48 48 NE 5 7 30.27 1025 10 16 N/A
2:35 am 02:35 Clear 37 3 18 -8 45 45 ENE 6 9 30.27 1025 10 16 N/A
2:56 am 02:56 Clear 37 3 18 -8 45 45 NE 6 9 30.27 1025 10 16 N/A
3:15 am 03:15 Clear 39 4 18 -8 42 42 ENE 6 9 30.27 1025 10 16 N/A
3:36 am 03:36 Partly Cloudy 39 4 18 -8 42 42 NE 5 7 30.27 1025 10 16 N/A
3:56 am 03:56 Clear 39 4 18 -8 42 42 ENE 7 11 30.27 1025 10 16 N/A
4:15 am 04:15 Clear 39 4 16 -9 39 39 ENE 8 13 30.27 1025 10 16 N/A
4:36 am 04:36 Clear 39 4 16 -9 39 39 ENE 9 15 30.27 1025 10 16 N/A
4:56 am 04:56 Clear 39 4 16 -9 39 39 ENE 10 17 30.24 1024 10 16 N/A
5:15 am 05:15 Clear 39 4 16 -9 39 39 ENE 9 15 30.24 1024 10 16 N/A
5:36 am 05:36 Clear 37 3 16 -9 41 41 ENE 9 15 30.24 1024 10 16 N/A
5:56 am 05:56 Clear 37 3 16 -9 41 41 ENE 8 13 30.24 1024 10 16 N/A
6:15 am 06:15 Clear 37 3 16 -9 41 41 ENE 8 13 30.24 1024 10 16 N/A
6:36 am 06:36 Clear 37 3 18 -8 45 45 ENE 9 15 30.24 1024 10 16 N/A
6:56 am 06:56 Clear 37 3 18 -8 45 45 ENE 8 13 30.24 1024 10 16 N/A
7:15 am 07:15 Clear 36 2 18 -8 48 48 ENE 8 13 30.24 1024 10 16 N/A
7:36 am 07:36 Clear 36 2 18 -8 48 48 ENE 7 11 30.27 1025 10 16 N/A
7:56 am 07:56 Sunny 36 2 18 -8 48 48 ENE 8 13 30.27 1025 10 16 N/A
8:15 am 08:15 Sunny 36 2 18 -8 48 48 ENE 8 13 30.27 1025 10 16 N/A
8:36 am 08:36 Sunny 37 3 18 -8 45 45 ENE 9 15 30.27 1025 10 16 N/A
8:56 am 08:56 Sunny 37 3 16 -9 41 41 E 9 15 30.27 1025 10 16 N/A
9:15 am 09:15 Sunny 37 3 16 -9 41 41 E 9 15 30.27 1025 10 16 N/A
9:36 am 09:36 Sunny 39 4 16 -9 39 39 ENE 9 15 30.27 1025 10 16 N/A
9:56 am 09:56 Sunny 39 4 16 -9 39 39 E 12 19 30.27 1025 10 16 N/A
10:36 am 10:36 Sunny 41 5 14 -10 33 33 E 13 20 30.24 1024 10 16 N/A
10:55 am 10:55 Sunny 43 6 14 -10 31 31 E 16 26 30.24 1024 10 16 N/A
11:16 am 11:16 Sunny 43 6 14 -10 31 31 E 13 20 30.24 1024 10 16 N/A
11:36 am 11:36 Sunny 45 7 14 -10 29 29 E 13 20 30.21 1023 10 16 N/A
11:55 am 11:55 Sunny 45 7 14 -10 29 29 E 14 22 30.21 1023 10 16 N/A
12:16 pm 12:16 Sunny 46 8 14 -10 27 27 E 15 24 30.21 1023 10 16 N/A
12:35 pm 12:35 Sunny 46 8 14 -10 27 27 E 10 17 30.21 1023 10 16 N/A
12:56 pm 12:56 Sunny 46 8 14 -10 27 27 E 13 20 30.21 1023 10 16 N/A
1:16 pm 13:16 Sunny 48 9 14 -10 25 25 E 14 22 30.21 1023 10 16 N/A
1:35 pm 13:35 Sunny 48 9 12 -11 23 23 ESE 10 17 30.21 1023 10 16 N/A
1:56 pm 13:56 Sunny 48 9 12 -11 23 23 E 13 20 30.21 1023 10 16 N/A
2:15 pm 14:15 Sunny 48 9 12 -11 23 23 E 9 15 30.21 1023 10 16 N/A
2:36 pm 14:36 Sunny 50 10 14 -10 24 24 ESE 12 19 30.18 1022 10 16 N/A
2:56 pm 14:56 Sunny 50 10 10 -12 20 20 E 13 20 30.18 1022 10 16 N/A
3:15 pm 15:15 Sunny 52 11 10 -12 19 19 E 13 20 30.18 1022 10 16 N/A
3:36 pm 15:36 Sunny 50 10 10 -12 20 20 E 13 20 30.15 1021 10 16 N/A
3:56 pm 15:56 Sunny 50 10 12 -11 22 22 ESE 9 15 30.15 1021 10 16 N/A
4:15 pm 16:15 Sunny 50 10 12 -11 22 22 ESE 12 19 30.15 1021 10 16 N/A
4:36 pm 16:36 Sunny 50 10 12 -11 22 22 ESE 8 13 30.15 1021 10 16 N/A
4:56 pm 16:56 Partly Cloudy 48 9 12 -11 23 23 E 13 20 30.15 1021 10 16 N/A
5:15 pm 17:15 Partly Cloudy 48 9 16 -9 27 27 E 9 15 30.15 1021 10 16 N/A
5:36 pm 17:36 Partly Cloudy 48 9 14 -10 25 25 E 9 15 30.15 1021 10 16 N/A
5:55 pm 17:55 Partly Cloudy 48 9 18 -8 29 29 E 8 13 30.12 1020 10 16 N/A
6:15 pm 18:15 Partly Cloudy 48 9 16 -9 27 27 E 10 17 30.12 1020 10 16 N/A
6:36 pm 18:36 Partly Cloudy 48 9 18 -8 29 29 E 8 13 30.12 1020 10 16 N/A
6:55 pm 18:55 Sunny 46 8 16 -9 29 29 E 10 17 30.12 1020 10 16 N/A
7:16 pm 19:16 Sunny 46 8 18 -8 32 32 E 7 11 30.12 1020 10 16 N/A
7:36 pm 19:36 Sunny 46 8 21 -6 37 37 ESE 6 9 30.12 1020 10 16 N/A
7:55 pm 19:55 Clear 46 8 18 -8 32 32 ESE 7 11 30.12 1020 10 16 N/A
8:16 pm 20:16 Partly Cloudy 46 8 19 -7 34 34 ESE 7 11 30.12 1020 10 16 N/A
8:36 pm 20:36 Partly Cloudy 46 8 18 -8 32 32 ESE 6 9 30.12 1020 10 16 N/A
8:55 pm 20:55 Mostly Cloudy 45 7 21 -6 39 39 SE 3 6 30.12 1020 10 16 N/A
9:16 pm 21:16 Mostly Cloudy 45 7 21 -6 39 39 SE 8 13 30.15 1021 10 16 N/A
9:36 pm 21:36 Cloudy 43 6 25 -4 49 49 ESE 9 15 30.15 1021 10 16 N/A
9:55 pm 21:55 Cloudy 41 5 27 -3 57 57 ESE 5 7 30.15 1021 10 16 N/A
10:16 pm 22:16 Cloudy 41 5 28 -2 61 61 ENE 7 11 30.15 1021 10 16 N/A
10:36 pm 22:36 Cloudy 41 5 28 -2 61 61 ENE 8 13 30.12 1020 10 16 N/A
10:55 pm 22:55 Cloudy 41 5 28 -2 61 61 ENE 6 9 30.12 1020 10 16 N/A
11:16 pm 23:16 Mostly Cloudy 41 5 30 -1 66 66 E 6 9 30.12 1020 10 16 N/A
11:36 pm 23:36 Cloudy 41 5 30 -1 66 66 E 3 6 30.12 1020 10 16 N/A
11:55 pm 23:55 Cloudy 41 5 30 -1 66 66 ESE 5 7 30.12 1020 10 16 N/A

Powered by AerisWeather